map of KTQH home
KTQH - Airport
Location
City:  Tahlequah, Oklahoma, United States
Name:Tahlequah Municipal Airport
ICAO:KTQH
FAA LID:TQH

Details
Type:Airport (Airfield)
Use:Public/Civil
Latitude:3555'49"N (35.930278)
Longitude:9500'16"W (-95.004527)
Datum:WGS 1984
Elevation:874 ft (266 m)
Variation:2.04E (WMM2015 magnetic declination)
-0.10 annual change
Runways:1
Longest:5001 × 75 ft (1524 × 23 m), paved

Time
Time Zone:UTC-6 (DST-5)
Local Time:

Weather
METAR:KTQH 231055Z AUTO 00000KT 10SM SCT042 BKN050 19/19 A3006 RMK AO2

Related Locations
Nearby:
Farthest:YAUG: 10739 mi / 17282 km
Augusta [Augusta Airport], WA, AU

Find:

   beyond  
but within

Other Information
Maps:
NOTAMs:
Links:
Sources:

  
flag of United States
flag of Oklahoma
  

Sectional Chart

Flight Planning
at skyvector.com

Satellite Image

Google Maps Satellite view

 

Copyright © 2004-2018 Karl L. Swartz. All rights reserved.
The Great Circle Mapper name and logo are trademarks of the Great Circle Mapper.
All other trademarks mentioned herein belong to their respective owners.
Please see credits for attibutions and further copyright information.

  Follow gcmap on Facebook Follow gcmap on Twitter Follow gcmap on Google+ GCmap on LinkedIn

hCard Microformat

Geo Microformat